Weather History for KSTS - March, 2015

Change the Weather History Date:

Monday, March 2, 2015

  Actual Average Record
Temperature  
Mean Temperature 51 °F 52 °F  
Max Temperature 62 °F 63 °F 71 °F (2002)
Min Temperature 40 °F 41 °F 33 °F (2007)
Degree Days  
Heating Degree Days 14    
Month to date heating degree days 28  
Since 1 July heating degree days 1484  
Cooling Degree Days 0    
Month to date cooling degree days 0  
Year to date cooling degree days 0  
Growing Degree Days 2 (Base 50)    
Moisture  
Dew Point 42 °F    
Average Humidity 72    
Maximum Humidity 100    
Minimum Humidity 43    
Precipitation  
Precipitation T in 0.25 in 1.21 in (2011)
Month to date precipitation T 0.51  
Year to date precipitation 4.32 13.96  
Sea Level Pressure  
Sea Level Pressure 29.82 in    
Wind  
Wind Speed 3 mph (NW)    
Max Wind Speed 10 mph    
Max Gust Speed 15 mph    
Visibility 8 miles    
Events      
T = Trace of Precipitation, MM = Missing Value Source: NWS Daily Summary

Daily Weather History Graph

Daily Weather History Graph

Search for Another Location

Airport or City:

Trip Planner

Search our weather history database for the weather conditions in past years. The results will help you decide how hot, cold, wet, or windy it might be!

Date:

Astronomy

Mar. 02, 2015 Rise Set
Actual Time 6:42 AM PST 6:05 PM PST
Civil Twilight 6:15 AM PST 6:31 PM PST
Nautical Twilight 5:44 AM PST 7:02 PM PST
Astronomical Twilight 5:14 AM PST 7:33 PM PST
Moon 3:40 PM PST (3/2) 4:47 AM PST (3/2)
Length of Visible Light 12h 16m
Length of Day
11h 23m
Waxing Gibbous, 92% of the Moon is Illuminated
Mar 2
Waxing Gibbous
Mar 5
Full
Mar 13
Last Quarter
Mar 20
New
Mar 27
First Quarter

Hourly Weather History & Observations

Time (PST) Temp. Windchill Dew Point Humidity Pressure Visibility Wind Dir Wind Speed Gust Speed Precip Events Conditions
12:53 AM 42.1 °F - 39.0 °F 89% 29.86 in 8.0 mi Calm Calm - N/A   Clear
1:53 AM 42.1 °F - 39.9 °F 92% 29.84 in 8.0 mi Calm Calm - N/A   Clear
2:01 AM 42.8 °F - 39.2 °F 87% 29.86 in 8.0 mi Calm Calm - N/A   Scattered Clouds
2:28 AM 41.0 °F - 39.2 °F 93% 29.85 in 8.0 mi Calm Calm - N/A   Mostly Cloudy
2:53 AM 41.0 °F 39.0 °F 39.9 °F 96% 29.83 in 8.0 mi West 3.5 mph - N/A   Overcast
3:53 AM 44.1 °F - 42.1 °F 93% 29.80 in 8.0 mi Calm Calm - N/A   Overcast
4:53 AM 44.1 °F - 42.1 °F 93% 29.78 in 8.0 mi Calm Calm - N/A   Overcast
5:53 AM 43.0 °F 39.5 °F 41.0 °F 93% 29.78 in 8.0 mi NNW 5.8 mph - N/A   Overcast
6:53 AM 44.1 °F 42.5 °F 42.1 °F 93% 29.77 in 8.0 mi NNW 3.5 mph - N/A   Overcast
7:53 AM 46.0 °F - 43.0 °F 89% 29.77 in 7.0 mi Calm Calm - N/A   Overcast
8:53 AM 48.0 °F - 43.0 °F 83% 29.77 in 8.0 mi North 3.5 mph - N/A   Mostly Cloudy
9:37 AM 48.2 °F - 44.6 °F 87% 29.79 in 7.0 mi North 3.5 mph - N/A   Mostly Cloudy
9:53 AM 48.9 °F - 44.1 °F 83% 29.78 in 7.0 mi North 4.6 mph - N/A   Mostly Cloudy
10:53 AM 54.0 °F - 45.0 °F 72% 29.77 in 7.0 mi NE 4.6 mph - N/A   Mostly Cloudy
11:53 AM 57.0 °F - 45.0 °F 64% 29.76 in 7.0 mi NNW 3.5 mph - N/A   Mostly Cloudy
12:53 PM 57.0 °F - 45.0 °F 64% 29.76 in 10.0 mi WSW 4.6 mph - N/A   Mostly Cloudy
1:53 PM 57.9 °F - 45.0 °F 62% 29.76 in 10.0 mi South 6.9 mph - N/A   Mostly Cloudy
2:53 PM 60.1 °F - 39.9 °F 47% 29.77 in 10.0 mi SE 8.1 mph - N/A   Mostly Cloudy
3:53 PM 62.1 °F - 39.9 °F 44% 29.79 in 10.0 mi SSE 8.1 mph - N/A   Scattered Clouds
4:53 PM 60.1 °F - 41.0 °F 49% 29.80 in 10.0 mi South 8.1 mph - N/A   Scattered Clouds
5:53 PM 57.9 °F - 39.9 °F 51% 29.83 in 10.0 mi Calm Calm - N/A   Scattered Clouds
6:53 PM 52.0 °F - 39.9 °F 63% 29.86 in 10.0 mi Calm Calm - N/A   Scattered Clouds
7:53 PM 48.0 °F - 42.1 °F 80% 29.89 in 8.0 mi Calm Calm - N/A   Clear
8:53 PM 46.0 °F - 42.1 °F 86% 29.91 in 8.0 mi Calm Calm - N/A   Clear
9:53 PM 46.0 °F - 42.1 °F 86% 29.94 in 7.0 mi Calm Calm - N/A   Clear
10:53 PM 43.0 °F 41.3 °F 41.0 °F 93% 29.96 in 7.0 mi WNW 3.5 mph - N/A   Clear
11:53 PM 42.1 °F - 39.9 °F 92% 29.97 in 8.0 mi Calm Calm - 0.00 in   Clear